Location: Elbart
(49.6135°N, 11.9134°E)
Time: 13:35:28
(UTC+00:00)

CZ-2C R/B - Pass Details

Date: 09 April 2020
Orbit: 639 x 705 km, 98.4° (Epoch: 26 May)

Event Time Altitude Azimuth Distance (km) Brightness Sun altitude
Rises 18:47:23 0° 19° (NNE) 3,086 7.2 -8.6°
Reaches altitude 10° 18:49:46 10° 26° (NNE) 2,155 6.3 -8.9°
Maximum altitude 18:54:17 45° 99° (E) 937 4.1 -9.6°
Drops below altitude 10° 18:58:41 10° 172° (S) 2,099 6.0 -10.3°
Sets 19:00:58 0° 179° (S) 2,997 6.8 -10.6°
